| time (UTC) | temp C | wind direction | speed KPH | gust KPH | rain 1hr cm | rain 24hr cm | rain mn cm | humidity % | barometer mb |
| 20260504130520 | 11 | 213 | 4.8 | 11.3 | 0.00 | 0.00 | 0.00 | 53 | 1009.8 |
| 20260504110525 | 6 | 212 | 3.2 | 4.8 | 0.00 | 0.00 | 0.00 | 73 | 1010.4 |
| 20260504100527 | 6 | 180 | 3.2 | 4.8 | 0.00 | 0.00 | 0.00 | 69 | 1009.9 |
| 20260504081528 | 3 | 186 | 6.4 | 6.4 | 0.00 | 0.00 | 0.00 | 80 | 1010.0 |
| 20260504080529 | 3 | 187 | 4.8 | 6.4 | 0.00 | 0.00 | 0.00 | 81 | 1010.1 |
| 20260504050557 | 5 | 200 | 3.2 | 6.4 | 0.00 | 0.00 | 0.00 | 72 | 1010.5 |
| 20260504045532 | 5 | 218 | 3.2 | 6.4 | 0.00 | 0.00 | 0.00 | 73 | 1010.6 |
| 20260504044533 | 5 | 225 | 3.2 | 6.4 | 0.00 | 0.00 | 0.00 | 73 | 1010.6 |
| 20260504043532 | 4 | 190 | 1.6 | 3.2 | 0.00 | 0.00 | 0.00 | 74 | 1010.7 |
| 20260504042532 | 4 | 204 | 4.8 | 6.4 | 0.00 | 0.00 | 0.00 | 75 | 1010.7 |
| 20260504041533 | 4 | 210 | 4.8 | 6.4 | 0.00 | 0.00 | 0.00 | 73 | 1010.6 |
| 20260504040532 | 5 | 210 | 4.8 | 6.4 | 0.00 | 0.00 | 0.00 | 73 | 1010.4 |
| 20260504035532 | 5 | 201 | 4.8 | 6.4 | 0.00 | 0.00 | 0.00 | 72 | 1010.4 |
| 20260504034558 | 5 | 201 | 4.8 | 8.0 | 0.00 | 0.00 | 0.00 | 67 | 1010.2 |
| 20260504033522 | 5 | 195 | 3.2 | 4.8 | 0.00 | 0.00 | 0.00 | 69 | 1010.3 |
| 20260504032522 | 6 | 214 | 3.2 | 6.4 | 0.00 | 0.00 | 0.00 | 66 | 1010.3 |
| 20260504031522 | 7 | 211 | 3.2 | 6.4 | 0.00 | 0.00 | 0.00 | 60 | 1010.3 |
| 20260504030522 | 7 | 48 | 3.2 | 9.7 | 0.00 | 0.00 | 0.00 | 56 | 1010.1 |
| 20260504025523 | 7 | 207 | 4.8 | 12.9 | 0.00 | 0.00 | 0.00 | 56 | 1010.0 |
| 20260504024523 | 7 | 74 | 3.2 | 4.8 | 0.00 | 0.00 | 0.00 | 54 | 1010.1 |
| 20260504023548 | 7 | 28 | 3.2 | 11.3 | 0.00 | 0.00 | 0.00 | 54 | 1010.2 |
| 20260504022523 | 7 | 336 | 4.8 | 14.5 | 0.00 | 0.00 | 0.00 | 53 | 1010.1 |
| 20260504021523 | 7 | 15 | 6.4 | 14.5 | 0.00 | 0.00 | 0.00 | 52 | 1010.1 |
| 20260504020524 | 8 | 59 | 3.2 | 8.0 | 0.00 | 0.00 | 0.00 | 51 | 1010.2 |
| 20260504015610 | 8 | 349 | 4.8 | 11.3 | 0.00 | 0.00 | 0.00 | 50 | 1010.2 |
| 20260504014546 | 8 | 260 | 4.8 | 11.3 | 0.00 | 0.00 | 0.00 | 50 | 1010.1 |
| 20260504013611 | 8 | 187 | 4.8 | 9.7 | 0.00 | 0.00 | 0.00 | 49 | 1010.0 |
| 20260504012546 | 8 | 222 | 6.4 | 11.3 | 0.00 | 0.00 | 0.00 | 49 | 1009.9 |
| 20260504011521 | 8 | 356 | 4.8 | 14.5 | 0.00 | 0.00 | 0.00 | 48 | 1009.8 |
| 20260504010521 | 8 | 261 | 4.8 | 9.7 | 0.00 | 0.00 | 0.00 | 48 | 1009.7 |
| 20260504005522 | 8 | 75 | 4.8 | 9.7 | 0.00 | 0.00 | 0.00 | 48 | 1009.5 |
| 20260504004522 | 8 | 1 | 4.8 | 9.7 | 0.00 | 0.00 | 0.00 | 47 | 1009.4 |
| 20260504003522 | 8 | 41 | 4.8 | 11.3 | 0.00 | 0.00 | 0.00 | 45 | 1009.3 |
| 20260504002522 | 8 | 206 | 6.4 | 12.9 | 0.00 | 0.00 | 0.00 | 45 | 1009.2 |
| 20260504001522 | 8 | 195 | 4.8 | 11.3 | 0.00 | 0.00 | 0.00 | 45 | 1009.1 |
| 20260504000522 | 8 | 198 | 4.8 | 12.9 | 0.00 | 0.00 | 0.00 | 42 | 1008.9 |
| 20260503235523 | 8 | 255 | 4.8 | 11.3 | 0.00 | 0.00 | 0.00 | 40 | 1008.7 |
| 20260503234523 | 8 | 231 | 4.8 | 12.9 | 0.00 | 0.00 | 0.00 | 40 | 1008.7 |
| 20260503233523 | 8 | 349 | 4.8 | 11.3 | 0.00 | 0.00 | 0.00 | 39 | 1008.5 |
| 20260503232524 | 8 | 19 | 6.4 | 12.9 | 0.00 | 0.00 | 0.00 | 38 | 1008.5 |
| 20260503231523 | 8 | 199 | 3.2 | 8.0 | 0.00 | 0.00 | 0.00 | 38 | 1008.5 |
| 20260503230520 | 8 | 269 | 6.4 | 12.9 | 0.00 | 0.00 | 0.00 | 36 | 1008.4 |
| 20260503225521 | 9 | 258 | 8.0 | 19.3 | 0.00 | 0.00 | 0.00 | 36 | 1008.3 |
| 20260503224521 | 9 | 321 | 3.2 | 9.7 | 0.00 | 0.00 | 0.00 | 36 | 1008.3 |
| 20260503223521 | 9 | 306 | 8.0 | 16.1 | 0.00 | 0.00 | 0.00 | 36 | 1008.3 |
| 20260503222521 | 9 | 310 | 4.8 | 16.1 | 0.00 | 0.00 | 0.00 | 36 | 1008.3 |
| 20260503221521 | 9 | 310 | 8.0 | 16.1 | 0.00 | 0.00 | 0.00 | 37 | 1008.3 |
| 20260503220521 | 9 | 347 | 12.9 | 19.3 | 0.00 | 0.00 | 0.00 | 37 | 1008.2 |
| 20260503215522 | 9 | 345 | 8.0 | 17.7 | 0.00 | 0.00 | 0.00 | 40 | 1008.2 |
| 20260503214522 | 10 | 318 | 9.7 | 16.1 | 0.00 | 0.00 | 0.00 | 40 | 1008.2 |
| 20260503213522 | 9 | 15 | 8.0 | 14.5 | 0.00 | 0.00 | 0.00 | 41 | 1008.1 |
| 20260503212522 | 9 | 332 | 9.7 | 16.1 | 0.00 | 0.00 | 0.00 | 42 | 1008.1 |
| 20260503211522 | 8 | 24 | 9.7 | 16.1 | 0.00 | 0.00 | 0.00 | 44 | 1008.1 |
| 20260503210523 | 8 | 3 | 8.0 | 17.7 | 0.00 | 0.00 | 0.00 | 44 | 1008.3 |
| 20260503205523 | 8 | 344 | 8.0 | 16.1 | 0.00 | 0.00 | 0.00 | 44 | 1008.3 |
| 20260503204523 | 8 | 353 | 4.8 | 12.9 | 0.00 | 0.00 | 0.00 | 44 | 1008.1 |
| 20260503203523 | 8 | 19 | 8.0 | 14.5 | 0.00 | 0.00 | 0.00 | 45 | 1008.3 |
| 20260503202520 | 8 | 3 | 6.4 | 16.1 | 0.00 | 0.00 | 0.00 | 46 | 1008.4 |
| 20260503201546 | 7 | 22 | 4.8 | 16.1 | 0.00 | 0.00 | 0.00 | 47 | 1008.4 |
| 20260503200546 | 7 | 25 | 6.4 | 12.9 | 0.00 | 0.00 | 0.00 | 48 | 1008.4 |
| 20260503195521 | 7 | 237 | 4.8 | 14.5 | 0.00 | 0.00 | 0.00 | 49 | 1008.6 |
| 20260503194547 | 7 | 345 | 8.0 | 16.1 | 0.00 | 0.00 | 0.00 | 49 | 1008.8 |
| 20260503193521 | 7 | 255 | 8.0 | 19.3 | 0.00 | 0.00 | 0.00 | 49 | 1008.5 |
| 20260503192547 | 7 | 7 | 9.7 | 20.9 | 0.00 | 0.00 | 0.00 | 48 | 1008.7 |
| 20260503191522 | 7 | 355 | 11.3 | 19.3 | 0.00 | 0.00 | 0.00 | 49 | 1008.8 |
| 20260503190522 | 7 | 6 | 8.0 | 14.5 | 0.00 | 0.00 | 0.00 | 49 | 1008.7 |
| 20260503185522 | 7 | 298 | 6.4 | 14.5 | 0.00 | 0.00 | 0.00 | 51 | 1008.8 |
| 20260503184522 | 7 | 356 | 8.0 | 19.3 | 0.00 | 0.00 | 0.00 | 51 | 1008.9 |
| 20260503183522 | 6 | 355 | 8.0 | 16.1 | 0.00 | 0.00 | 0.00 | 51 | 1009.0 |
| 20260503182522 | 6 | 286 | 9.7 | 19.3 | 0.00 | 0.00 | 0.00 | 51 | 1008.9 |
| 20260503181523 | 7 | 353 | 9.7 | 20.9 | 0.00 | 0.00 | 0.00 | 51 | 1008.9 |
| 20260503180548 | 7 | 240 | 11.3 | 27.4 | 0.00 | 0.00 | 0.00 | 51 | 1009.0 |
| 20260503175523 | 7 | 257 | 11.3 | 20.9 | 0.00 | 0.00 | 0.00 | 50 | 1008.7 |
| 20260503174523 | 7 | 281 | 6.4 | 14.5 | 0.00 | 0.00 | 0.00 | 49 | 1008.6 |
| 20260503173523 | 6 | 244 | 6.4 | 14.5 | 0.00 | 0.00 | 0.00 | 52 | 1008.5 |
| 20260503172521 | 6 | 6 | 6.4 | 14.5 | 0.00 | 0.00 | 0.00 | 52 | 1008.8 |
| 20260503171611 | 6 | 343 | 9.7 | 16.1 | 0.00 | 0.00 | 0.00 | 51 | 1008.8 |
| 20260503170521 | 6 | 305 | 9.7 | 17.7 | 0.00 | 0.00 | 0.00 | 51 | 1008.7 |
| 20260503150523 | 5 | 347 | 4.8 | 11.3 | 0.00 | 0.00 | 0.00 | 64 | 1009.2 |